User: anonymous   Login
Location: Bismarck
(46.7731°N, 100.8200°W)
Time: 15:04:13
(UTC-05:00)
Language:

Cosmos 2219 Rocket - Orbit

View from above orbital plane
View from above orbital plane
View from above satellite
View from above satellite

Ground track
Ground track

The orbit data is extracted from the following two-line orbital elements,

1 22220U 92076B   15088.09908976  .00000107  00000-0  77682-4 0  9994
2 22220 071.0012 326.4686 0010807 065.1325 096.3139 14.16356819155921
Epoch (UTC): 29 March 2015 02:22:41
Eccentricity: 0.0010807
inclination: 71.0012°
perigee height: 830 km
apogee height: 845 km
right ascension of ascending node: 326.4686°
argument of perigee: 65.1325°
revolutions per day: 14.16356819
mean anomaly at epoch: 96.3139°
orbit number at epoch: 15592

The dashed part of the orbit path shows where the satellite is in the earth's shadow,  

DLR